When you browse on this site, cookies collect data to enhance your experience and personalize the content and advertising you see.
Visit our Privacy Policy to learn more. By continuing to use the site, you agree to this use of cookies and data.
  • In Hungary
  • List of Countries
  • For 7 days
  • Water Temperature
  • Satellite Maps
  • Weather Map
  • News
  • Weather Widgets
  • user-avatar
    Login

    Hourly Weather Lubka

    Today, 24 May, Friday

    Time Temperature Precipitation Wind Pressure Humidity
    00:00 +13°C° 0.2 mm 3 mps 746 mmHg 96%
    01:00 +13°C° 0.2 mm 4 mps 746 mmHg 97%
    02:00 +13°C° 0 mm 3 mps 746 mmHg 98%
    03:00 +13°C° 0.1 mm 3 mps 746 mmHg 97%
    04:00 +13°C° 0.1 mm 4 mps 746 mmHg 96%
    05:00 +13°C° 0.1 mm 4 mps 746 mmHg 96%
    06:00 +13°C° 0 mm 4 mps 746 mmHg 95%
    07:00 +13°C° 0 mm 4 mps 746 mmHg 94%
    08:00 +13°C° 0 mm 4 mps 746 mmHg 93%
    09:00 +13°C° 0 mm 3 mps 746 mmHg 91%
    10:00 +14°C° 0 mm 3 mps 746 mmHg 89%
    11:00 +16°C° 0 mm 3 mps 746 mmHg 88%
    12:00 +16°C° 0 mm 3 mps 746 mmHg 85%
    13:00 +17°C° 0 mm 3 mps 746 mmHg 83%
    14:00 +18°C° 0 mm 3 mps 746 mmHg 81%
    15:00 +18°C° 0 mm 3 mps 746 mmHg 79%
    16:00 +19°C° 0 mm 3 mps 745 mmHg 77%
    17:00 +19°C° 0 mm 3 mps 745 mmHg 76%
    18:00 +18°C° 0.2 mm 3 mps 745 mmHg 80%
    19:00 +18°C° 0.2 mm 2 mps 745 mmHg 84%
    20:00 +17°C° 0.2 mm 2 mps 745 mmHg 88%
    21:00 +16°C° 0 mm 2 mps 745 mmHg 90%
    22:00 +15°C° 0 mm 2 mps 745 mmHg 92%
    23:00 +13°C° 0 mm 3 mps 745 mmHg 94%

    Tomorrow, 25 May, Saturday

    Time Temperature Precipitation Wind Pressure Humidity
    00:00 +13°C° 0 mm 3 mps 745 mmHg 94%
    01:00 +12°C° 0 mm 3 mps 745 mmHg 94%
    02:00 +13°C° 0 mm 2 mps 745 mmHg 94%
    03:00 +12°C° 0 mm 2 mps 745 mmHg 94%
    04:00 +12°C° 0 mm 2 mps 745 mmHg 95%
    05:00 +12°C° 0 mm 2 mps 745 mmHg 95%
    06:00 +13°C° 0 mm 2 mps 745 mmHg 91%
    07:00 +14°C° 0 mm 3 mps 745 mmHg 88%
    08:00 +16°C° 0 mm 3 mps 745 mmHg 84%
    09:00 +18°C° 0 mm 4 mps 745 mmHg 78%
    10:00 +19°C° 0 mm 4 mps 745 mmHg 71%
    11:00 +20°C° 0 mm 4 mps 745 mmHg 65%
    12:00 +21°C° 0 mm 4 mps 745 mmHg 62%
    13:00 +21°C° 0 mm 4 mps 745 mmHg 58%
    14:00 +22°C° 0 mm 4 mps 744 mmHg 55%
    15:00 +22°C° 0 mm 4 mps 744 mmHg 56%
    16:00 +22°C° 0 mm 4 mps 744 mmHg 58%
    17:00 +22°C° 0 mm 3 mps 744 mmHg 59%
    18:00 +20°C° 0.3 mm 3 mps 744 mmHg 67%
    19:00 +19°C° 0.3 mm 3 mps 744 mmHg 75%
    20:00 +17°C° 0.3 mm 2 mps 744 mmHg 84%
    21:00 +16°C° 0 mm 2 mps 745 mmHg 86%
    22:00 +15°C° 0 mm 2 mps 745 mmHg 88%
    23:00 +14°C° 0 mm 2 mps 745 mmHg 91%

    Day after tomorrow, 26 May, Sunday

    Time Temperature Precipitation Wind Pressure Humidity
    00:00 +13°C° 0 mm 2 mps 745 mmHg 91%
    01:00 +13°C° 0 mm 2 mps 745 mmHg 92%
    02:00 +12°C° 0 mm 2 mps 746 mmHg 92%
    03:00 +12°C° 0 mm 2 mps 746 mmHg 93%
    04:00 +12°C° 0 mm 2 mps 746 mmHg 93%
    05:00 +10°C° 0 mm 2 mps 746 mmHg 94%
    06:00 +13°C° 0 mm 2 mps 746 mmHg 89%
    07:00 +14°C° 0 mm 3 mps 746 mmHg 85%
    08:00 +16°C° 0 mm 3 mps 746 mmHg 80%
    09:00 +18°C° 0.1 mm 3 mps 746 mmHg 76%
    10:00 +19°C° 0.1 mm 4 mps 746 mmHg 71%
    11:00 +20°C° 0.1 mm 4 mps 746 mmHg 66%
    12:00 +20°C° 0.5 mm 4 mps 746 mmHg 67%
    13:00 +21°C° 0.5 mm 4 mps 746 mmHg 68%
    14:00 +21°C° 0.5 mm 5 mps 745 mmHg 68%
    15:00 +21°C° 0.4 mm 4 mps 745 mmHg 69%
    16:00 +21°C° 0.4 mm 4 mps 745 mmHg 69%
    17:00 +21°C° 0.4 mm 4 mps 744 mmHg 70%
    18:00 +19°C° 0.2 mm 4 mps 744 mmHg 73%
    19:00 +18°C° 0.2 mm 3 mps 744 mmHg 77%
    20:00 +17°C° 0.2 mm 2 mps 745 mmHg 81%
    21:00 +16°C° 0 mm 2 mps 745 mmHg 83%
    22:00 +15°C° 0 mm 2 mps 745 mmHg 85%
    23:00 +14°C° 0 mm 2 mps 745 mmHg 86%

    27 May, Monday

    Time Temperature Precipitation Wind Pressure Humidity
    00:00 +14°C° 0 mm 2 mps 745 mmHg 87%
    01:00 +13°C° 0 mm 2 mps 746 mmHg 88%
    02:00 +13°C° 0 mm 2 mps 746 mmHg 88%
    03:00 +13°C° 0 mm 2 mps 746 mmHg 90%
    04:00 +13°C° 0 mm 2 mps 746 mmHg 91%
    05:00 +13°C° 0 mm 2 mps 746 mmHg 92%
    06:00 +14°C° 0 mm 2 mps 746 mmHg 88%
    07:00 +16°C° 0 mm 3 mps 746 mmHg 84%
    08:00 +18°C° 0 mm 3 mps 746 mmHg 80%
    09:00 +19°C° 0 mm 4 mps 746 mmHg 75%
    10:00 +21°C° 0 mm 4 mps 746 mmHg 70%
    11:00 +22°C° 0 mm 4 mps 746 mmHg 65%
    12:00 +23°C° 0 mm 5 mps 745 mmHg 63%
    13:00 +23°C° 0 mm 5 mps 745 mmHg 61%
    14:00 +25°C° 0 mm 5 mps 745 mmHg 59%
    15:00 +25°C° 0 mm 5 mps 745 mmHg 61%
    16:00 +25°C° 0 mm 4 mps 744 mmHg 62%
    17:00 +25°C° 0 mm 4 mps 744 mmHg 64%
    18:00 +23°C° 0.1 mm 4 mps 744 mmHg 71%
    19:00 +21°C° 0.1 mm 4 mps 744 mmHg 77%
    20:00 +19°C° 0.1 mm 3 mps 744 mmHg 83%
    21:00 +19°C° 0.1 mm 3 mps 744 mmHg 85%
    22:00 +18°C° 0.1 mm 2 mps 744 mmHg 87%
    23:00 +18°C° 0.1 mm 2 mps 745 mmHg 89%

    28 May, Tuesday

    Time Temperature Precipitation Wind Pressure Humidity
    00:00 +17°C° 0 mm 2 mps 744 mmHg 90%
    01:00 +18°C° 0 mm 1 mps 744 mmHg 90%
    02:00 +18°C° 0 mm 1 mps 744 mmHg 91%
    03:00 +18°C° 0.2 mm 1 mps 744 mmHg 91%
    04:00 +17°C° 0.2 mm 2 mps 743 mmHg 92%
    05:00 +17°C° 0.2 mm 2 mps 743 mmHg 93%
    06:00 +17°C° 1.3 mm 2 mps 743 mmHg 93%
    07:00 +17°C° 1.3 mm 2 mps 743 mmHg 94%
    08:00 +17°C° 1.3 mm 3 mps 742 mmHg 95%
    09:00 +18°C° 1.8 mm 3 mps 742 mmHg 94%
    10:00 +18°C° 1.8 mm 2 mps 742 mmHg 94%
    11:00 +19°C° 1.8 mm 2 mps 741 mmHg 94%
    12:00 +21°C° 0.8 mm 3 mps 741 mmHg 87%
    13:00 +24°C° 0.8 mm 3 mps 741 mmHg 80%
    14:00 +26°C° 0.8 mm 4 mps 740 mmHg 73%
    15:00 +25°C° 1.4 mm 4 mps 740 mmHg 74%
    16:00 +25°C° 1.4 mm 4 mps 740 mmHg 76%
    17:00 +25°C° 1.4 mm 4 mps 740 mmHg 77%
    18:00 +24°C° 1.1 mm 3 mps 740 mmHg 81%
    19:00 +21°C° 1.1 mm 3 mps 740 mmHg 84%
    20:00 +20°C° 1.1 mm 2 mps 740 mmHg 88%
    21:00 +19°C° 0 mm 2 mps 740 mmHg 90%
    22:00 +18°C° 0 mm 3 mps 740 mmHg 91%
    23:00 +17°C° 0 mm 3 mps 740 mmHg 93%

    29 May, Wednesday

    Time Temperature Precipitation Wind Pressure Humidity
    00:00 +17°C° 0 mm 2 mps 740 mmHg 93%
    01:00 +17°C° 0 mm 2 mps 740 mmHg 94%
    02:00 +16°C° 0 mm 2 mps 740 mmHg 94%
    03:00 +16°C° 0 mm 2 mps 740 mmHg 94%
    04:00 +16°C° 0 mm 2 mps 740 mmHg 94%
    05:00 +15°C° 0 mm 2 mps 740 mmHg 94%
    06:00 +17°C° 0 mm 2 mps 741 mmHg 91%
    07:00 +18°C° 0 mm 2 mps 741 mmHg 87%
    08:00 +19°C° 0 mm 2 mps 741 mmHg 84%
    09:00 +20°C° 1.1 mm 2 mps 742 mmHg 80%
    10:00 +21°C° 1.1 mm 2 mps 742 mmHg 77%
    11:00 +24°C° 1.1 mm 2 mps 742 mmHg 73%
    12:00 +24°C° 1.9 mm 2 mps 742 mmHg 74%
    13:00 +24°C° 1.9 mm 3 mps 742 mmHg 74%
    14:00 +24°C° 1.9 mm 3 mps 743 mmHg 75%
    15:00 +23°C° 1 mm 2 mps 743 mmHg 76%
    16:00 +23°C° 1 mm 2 mps 743 mmHg 76%
    17:00 +23°C° 1 mm 1 mps 743 mmHg 77%
    18:00 +22°C° 0.1 mm 1 mps 744 mmHg 81%
    19:00 +21°C° 0.1 mm 1 mps 744 mmHg 85%
    20:00 +20°C° 0.1 mm 1 mps 744 mmHg 88%
    21:00 +19°C° 0.1 mm 1 mps 745 mmHg 91%
    22:00 +18°C° 0.1 mm 2 mps 745 mmHg 93%
    23:00 +17°C° 0.1 mm 2 mps 745 mmHg 95%
    Show more